Regional Weather Roundup
Issued by NWS

Home | Current Version | Previous Version | Graphics & Text | Print | Product List | Glossary On
Versions: 1 2 3 4 5 6 7 8 9 10 11 12 13 14 15 16 17 18 19 20 21 22 23 24 25 26 27 28 29 30 31 32 33 34 35 36 37 38 39 40 41 42 43 44 45 46 47 48 49 50
000
ASUS45 KBOU 240007
RWRCO

WEATHER ROUNDUP FOR COLORADO
NATIONAL WEATHER SERVICE DENVER/BOULDER CO
600 PM MDT WED JUL 23 2014

NOTE: "FAIR" INDICATES FEW OR NO CLOUDS BELOW 12000 FEET WITH NO
SIGNIFICANT WEATHER AND/OR OBSTRUCTIONS TO VISIBILITY.

COZ001>005-013-030-031-240100-
...NORTHWEST COLORADO...

CITY           SKY/WX    TMP DP  RH WIND       PRES   REMARKS
CRAIG          PTSUNNY   88  37  16 SW10      30.22F
HAYDEN         PTSUNNY   90  37  15 E3        30.26F
MEEKER         MOSUNNY   92  31  11 S8        30.24F
MOUNT WERNER   NOT AVBL
STEAMBOAT SPGS PTSUNNY   89  37  15 NE3       30.29F
WALDEN         PTSUNNY   77  32  19 S9        30.42F
$$

COZ006>008-011-240100-
...WEST CENTRAL VALLEYS...

CITY           SKY/WX    TMP DP  RH WIND       PRES   REMARKS
GRAND JUNCTION PTSUNNY   93  40  15 S17       30.10S
MONTROSE       PTSUNNY   87  47  24 SW5       30.23S
EAGLE          PTSUNNY   84  43  23 E20G30    30.31R
RIFLE          MOSUNNY   97  30   9 MISG      30.14F
DELTA          PTSUNNY   94  43  16 SW5       30.16F
NUCLA          PTSUNNY   95  36  12 E9        30.24F
$$

COZ017>023-064>068-240100-
...SOUTHWEST COLORADO...

CITY           SKY/WX    TMP DP  RH WIND       PRES   REMARKS
DURANGO        SUNNY     88  31  13 SE5       30.29F
CORTEZ         SUNNY     94  33  11 VRB3      30.21F
PAGOSA SPRINGS SUNNY     87  29  12 SE9       30.40S
TELLURIDE      PTSUNNY   75  39  27 CALM      30.53S
WOLF CREEK PAS NOT AVBL
$$

COZ009-010-012-014-032>034-037-058>063-240100-
...CENTRAL COLORADO...

CITY           SKY/WX    TMP DP  RH WIND       PRES   REMARKS
ASPEN          PTSUNNY   76  45  33 SE10G21   30.42F
BUENA VISTA    PTSUNNY   76  39  26 N15G25    30.49R
COPPER MTN     CLOUDY    59  34  38 SW14G26   30.88R
BERTHOUD PASS  CLOUDY    50  36  57 SW7       30.90S
COTTONWOOD PAS PTSUNNY   70  36  28 CALM      30.66R
GUNNISON       PTSUNNY   77  39  25 N17G24    30.45R
KREMMLING      PTSUNNY   79  34  19 S7        30.42S
LEADVILLE      CLOUDY    58  42  55 NE7       30.67F
MONARCH PASS   CLOUDY    61  32  33 E25G32    30.90S
SALIDA         PTSUNNY  N/A N/A N/A SE10      30.47S
SUNLIGHT       MOSUNNY   73  36  25 S3        30.69F
WILKERSON PASS CLOUDY    54  41  62 W3        30.83F
$$

COZ069>075-240100-
...SAN LUIS VALLEY/SANGRE DE CRISTO MOUNTAINS...

CITY           SKY/WX    TMP DP  RH WIND       PRES   REMARKS
ALAMOSA        MOSUNNY   85  39  19 NE20G26   30.40S
LA VETA PASS   TSTM      59  50  72 E12G24    30.67S
SAGUACHE       MOSUNNY   86  28  12 S9        30.42F
$$

COZ035-036-038>040-240100-
...NORTHERN COLORADO FRONT RANGE...

CITY           SKY/WX    TMP DP  RH WIND       PRES   REMARKS
DENVER INTL AP CLOUDY    86  41  20 SW23G32   30.27F
DMNS CITY PARK   N/A     81  43  26 S25G36    30.28F
AURORA         PTSUNNY   78  47  33 S23G35    30.34S
FRONT RANGE AP NOT AVBL
ERIE MUNI ARPT PTSUNNY   85  44  24 S16       30.27S
BOULDER MUN AP PTSUNNY   84  46  26 S9G21     30.27S
CENTENNIAL     LGT RAIN  73  51  46 W5        30.42R
BROOMFIELD     PTSUNNY   82  46  28 S17G26    30.32F
FORT COLLINS   PTSUNNY   90  54  29 SW10      30.21F
LONGMONT       PTSUNNY   88  47  24 S18G31    30.24F
$$

COZ041-046-047-076>085-087-088-240100-
...PIKES PEAK/PALMER DIVIDE AND SOUTHERN FOOTHILLS...

CITY           SKY/WX    TMP DP  RH WIND       PRES   REMARKS
COLO. SPRINGS  PTSUNNY   86  38  18 SE15      30.36R
A. F. ACADEMY  PTSUNNY   78  45  31 NW16G23   30.41R
ELLICOTT       MOSUNNY   86  48  26 S14       30.33F
FALCON         MOSUNNY   82  41  23 S12       30.43S
FORT CARSON    MOSUNNY   87  41  19 SE13      30.31F
LIMON          PTSUNNY   85  59  41 SE18G25   30.28F
MONUMENT HILL  CLOUDY    70  45  40 W16       30.46R
TRINIDAD       PTSUNNY   81  49  32 S15G25    30.30S
$$

COZ042>045-048>051-090-091-240100-
...NORTHEAST COLORADO...

CITY           SKY/WX    TMP DP  RH WIND       PRES   REMARKS
GREELEY ARPT   CLOUDY    88  55  33 W13       30.20F
AKRON          MOSUNNY   88  59  37 S20       30.20F
BURLINGTON     SUNNY     88  62  41 S12       30.20F
WRAY             N/A     95  55  25 SE15      30.15F
STERLING       MOSUNNY   91  63  38 S15G22    30.12S
HOLYOKE        SUNNY     95  61  31 S10       30.15F
FORT MORGAN    MOSUNNY   91  63  39 W20G25    30.20R THUNDER
$$

COZ086-089-092>099-240100-
...SOUTHEAST COLORADO...

CITY           SKY/WX    TMP DP  RH WIND       PRES   REMARKS
PUEBLO         SUNNY     94  53  25 E16       30.19F
LA JUNTA       MOSUNNY   96  49  20 S9        30.15F
LAMAR          CLOUDY    91  63  39 E23G30    30.13F
SPRINGFIELD      N/A     91  50  24 S13G22    30.19F
$$


USA.gov is the U.S. government's official web portal to all federal, state and local government web resources and services.